GEFSGL_prec_meanprecacc_138.txt.gz
Total_Precipitation_Accumulation
1.04 1.12 1.00 0.82 0.73 0.71 0.66 0.63 0.70 0.77 0.82 0.85 0.80 0.72 0.66 0.69 0.81 0.96 1.00 1.07 1.15 1.20 1.25 1.26 1.25 1.27 1.32 1.26 1.35 1.48 1.64 1.79 1.65 1.54 1.46 1.41 1.34 1.25 1.11 0.91 0.79 0.70 0.63
1.38 1.53 1.39 1.02 0.82 0.72 0.58 0.54 0.61 0.72 0.81 0.84 0.77 0.69 0.65 0.69 0.82 0.96 1.08 1.28 1.41 1.36 1.28 1.20 1.12 1.19 1.28 1.28 1.37 1.38 1.45 1.67 1.67 1.63 1.61 1.63 1.54 1.36 1.26 1.12 0.91 0.79 0.75
1.23 1.41 1.23 0.88 0.67 0.58 0.52 0.53 0.65 0.77 0.82 0.81 0.79 0.79 0.87 0.95 1.06 1.16 1.21 1.35 1.38 1.29 1.25 1.18 1.12 1.14 1.17 1.25 1.35 1.38 1.36 1.43 1.58 1.60 1.61 1.70 1.68 1.48 1.31 1.18 1.07 1.08 0.99
0.80 0.99 0.90 0.71 0.59 0.51 0.50 0.53 0.57 0.63 0.71 0.78 0.91 1.07 1.17 1.23 1.26 1.29 1.26 1.21 1.18 1.09 1.03 0.98 1.02 1.13 1.19 1.19 1.17 1.19 1.23 1.33 1.42 1.47 1.54 1.66 1.72 1.65 1.45 1.32 1.29 1.24 1.14
0.70 0.88 0.80 0.66 0.57 0.49 0.43 0.46 0.53 0.63 0.72 0.87 1.02 1.11 1.10 1.12 1.19 1.26 1.24 1.12 1.04 0.95 0.87 0.73 0.73 0.90 1.03 1.07 0.99 1.03 1.09 1.17 1.20 1.29 1.38 1.53 1.63 1.73 1.55 1.36 1.30 1.36 1.30
0.64 0.84 0.83 0.70 0.58 0.46 0.43 0.50 0.63 0.70 0.79 0.94 1.02 1.02 0.97 0.78 0.75 0.81 0.84 0.86 0.88 0.85 0.76 0.71 0.69 0.70 0.71 0.72 0.74 0.78 0.85 0.94 1.06 1.23 1.34 1.41 1.45 1.56 1.66 1.61 1.54 1.50 1.47
0.63 0.79 0.87 0.80 0.70 0.62 0.54 0.63 0.71 0.77 0.86 0.92 0.93 0.92 0.89 0.86 0.72 0.60 0.56 0.62 0.68 0.70 0.70 0.74 0.60 0.52 0.57 0.56 0.58 0.56 0.55 0.58 0.71 0.94 1.16 1.24 1.37 1.41 1.65 1.69 1.72 1.80 1.79
0.66 0.82 0.89 0.88 0.86 0.89 0.83 0.82 0.87 0.94 0.96 1.00 0.97 0.94 0.98 0.94 0.81 0.66 0.56 0.50 0.58 0.64 0.67 0.71 0.70 0.67 0.66 0.69 0.67 0.61 0.54 0.50 0.52 0.59 0.79 1.03 1.25 1.49 1.59 1.66 1.74 1.80 1.80
0.70 0.85 0.95 1.02 1.09 1.09 1.07 1.10 1.18 1.24 1.17 1.17 1.18 1.16 1.17 1.15 0.97 0.71 0.59 0.57 0.67 0.69 0.70 0.71 0.72 0.71 0.71 0.62 0.62 0.62 0.61 0.61 0.51 0.51 0.59 0.80 0.98 1.08 1.31 1.52 1.66 1.59 1.52
0.96 1.04 1.21 1.38 1.51 1.56 1.54 1.49 1.47 1.52 1.41 1.33 1.26 1.23 1.22 1.26 1.17 0.81 0.65 0.69 0.85 0.88 0.90 0.83 0.69 0.62 0.59 0.51 0.53 0.66 0.63 0.62 0.67 0.62 0.53 0.58 0.70 0.84 0.92 1.03 1.26 1.40 1.30
1.18 1.28 1.47 1.74 1.87 1.79 1.75 1.66 1.59 1.61 1.63 1.57 1.44 1.40 1.41 1.41 1.32 0.96 0.81 0.86 1.00 1.10 1.09 1.04 0.96 0.79 0.59 0.53 0.51 0.58 0.62 0.66 0.77 0.81 0.78 0.76 0.85 0.96 0.93 0.89 1.00 1.16 1.19
1.32 1.52 1.73 1.93 1.89 1.75 1.89 1.83 1.79 1.83 1.83 1.76 1.70 1.62 1.59 1.58 1.41 1.07 0.81 0.86 1.03 1.21 1.28 1.23 1.14 0.91 0.69 0.61 0.56 0.55 0.52 0.52 0.61 0.73 0.77 0.75 0.79 0.89 0.97 0.96 0.99 1.03 1.07
1.44 1.56 1.68 1.75 1.90 2.05 2.10 2.03 1.96 1.93 1.92 1.81 1.75 1.67 1.60 1.60 1.55 1.11 0.87 0.91 1.01 1.13 1.33 1.35 1.12 0.90 0.75 0.61 0.57 0.57 0.51 0.47 0.57 0.63 0.64 0.64 0.65 0.76 0.96 1.09 1.13 1.14 1.11
1.31 1.31 1.40 1.55 1.67 1.81 2.04 2.10 2.05 1.95 1.92 1.88 1.77 1.66 1.61 1.66 1.65 1.32 1.03 0.98 1.03 1.05 1.16 1.21 1.08 0.92 0.80 0.70 0.65 0.62 0.58 0.59 0.67 0.69 0.70 0.74 0.76 0.84 0.95 1.05 1.15 1.19 1.15
1.28 1.26 1.26 1.33 1.49 1.58 1.71 1.81 1.83 1.83 1.64 1.56 1.46 1.40 1.40 1.47 1.45 1.21 1.06 1.07 1.17 1.22 1.19 1.22 1.24 1.12 1.00 0.90 0.86 0.88 0.88 0.83 0.77 0.79 0.83 0.86 0.85 0.87 0.93 1.01 1.08 1.12 1.06
1.28 1.23 1.24 1.28 1.41 1.50 1.55 1.51 1.33 1.27 1.08 0.96 0.93 0.88 0.90 0.96 1.06 0.94 0.83 0.93 1.10 1.16 1.11 1.14 1.24 1.24 1.16 1.08 1.03 1.04 1.04 0.99 0.93 0.94 0.93 0.92 0.91 0.89 0.92 0.97 1.01 1.02 0.99
1.33 1.24 1.17 1.14 1.20 1.26 1.36 1.51 1.56 1.33 1.09 0.90 0.79 0.68 0.66 0.73 0.82 0.83 0.78 0.84 0.95 0.99 0.98 1.03 1.13 1.19 1.15 1.13 1.08 1.06 1.02 1.05 1.07 1.03 0.99 0.99 0.98 0.93 0.91 0.94 0.95 1.01 1.00
1.26 1.17 1.08 1.09 1.13 1.16 1.23 1.35 1.50 1.52 1.29 0.97 0.83 0.72 0.62 0.61 0.65 0.69 0.70 0.74 0.83 0.87 0.88 0.94 1.00 1.05 1.07 1.09 1.09 1.09 1.06 1.07 1.06 1.04 1.00 0.99 0.99 0.94 0.94 0.95 0.92 0.94 1.00
1.14 1.06 0.98 1.01 1.04 1.03 1.09 1.17 1.28 1.35 1.27 1.11 0.94 0.75 0.61 0.52 0.54 0.58 0.58 0.65 0.80 0.85 0.84 0.88 0.90 0.92 0.96 1.00 1.01 1.05 1.05 1.01 1.00 1.03 1.00 0.96 0.98 0.99 0.98 0.98 0.98 0.98 0.99
1.05 0.87 0.81 0.87 0.93 0.95 1.02 1.09 1.13 1.19 1.18 1.12 1.00 0.76 0.57 0.51 0.59 0.65 0.65 0.75 0.85 0.85 0.82 0.85 0.81 0.80 0.86 0.92 0.97 1.02 1.02 1.03 1.05 1.02 1.00 0.98 0.97 0.97 0.95 0.95 0.99 1.00 1.00
0.98 0.83 0.63 0.62 0.72 0.79 0.88 0.97 1.00 1.02 1.05 1.04 0.89 0.63 0.44 0.41 0.54 0.69 0.79 0.83 0.84 0.83 0.78 0.73 0.70 0.72 0.77 0.83 0.87 0.90 0.94 1.01 0.99 0.99 1.02 0.99 0.94 0.95 0.94 0.95 0.94 0.95 0.98
0.92 0.84 0.68 0.60 0.63 0.68 0.76 0.87 0.90 0.87 0.87 0.86 0.76 0.57 0.42 0.39 0.52 0.65 0.72 0.72 0.71 0.73 0.70 0.66 0.64 0.68 0.71 0.74 0.79 0.84 0.89 0.91 0.93 0.96 0.98 0.98 0.97 0.96 0.96 1.00 0.99 0.97 0.98
0.88 0.80 0.69 0.62 0.64 0.63 0.66 0.77 0.78 0.76 0.73 0.68 0.62 0.55 0.47 0.49 0.56 0.65 0.67 0.66 0.66 0.64 0.63 0.62 0.59 0.59 0.64 0.67 0.69 0.75 0.81 0.81 0.83 0.86 0.92 0.96 0.97 0.98 1.01 1.02 0.97 0.93 0.94
0.81 0.76 0.65 0.60 0.62 0.67 0.67 0.70 0.66 0.63 0.60 0.57 0.53 0.52 0.51 0.55 0.59 0.60 0.61 0.60 0.60 0.56 0.54 0.55 0.56 0.56 0.59 0.64 0.63 0.63 0.65 0.68 0.68 0.72 0.77 0.82 0.85 0.92 0.98 1.01 0.97 0.93 0.98
0.78 0.79 0.69 0.59 0.58 0.61 0.62 0.64 0.62 0.60 0.56 0.50 0.49 0.50 0.52 0.54 0.55 0.58 0.58 0.55 0.51 0.50 0.46 0.47 0.54 0.54 0.50 0.51 0.51 0.51 0.55 0.53 0.52 0.58 0.67 0.76 0.77 0.84 0.95 0.98 0.97 0.97 1.03
0.71 0.73 0.67 0.58 0.53 0.53 0.55 0.62 0.64 0.59 0.54 0.47 0.47 0.49 0.47 0.44 0.44 0.46 0.45 0.43 0.43 0.43 0.43 0.44 0.47 0.48 0.47 0.45 0.43 0.44 0.42 0.39 0.40 0.48 0.53 0.62 0.71 0.77 0.85 0.90 0.89 0.96 1.03

GEFSGL_prec_meanprecacc_144.txt.gz
Total_Precipitation_Accumulation
1.10 1.24 1.15 0.95 0.85 0.81 0.74 0.70 0.75 0.81 0.86 0.89 0.84 0.77 0.72 0.74 0.86 1.00 1.04 1.11 1.18 1.22 1.28 1.28 1.26 1.27 1.32 1.26 1.35 1.48 1.65 1.79 1.66 1.54 1.46 1.41 1.34 1.25 1.11 0.91 0.80 0.71 0.63
1.42 1.61 1.52 1.15 0.94 0.84 0.68 0.61 0.67 0.77 0.86 0.88 0.82 0.74 0.70 0.76 0.89 1.01 1.13 1.33 1.46 1.40 1.31 1.23 1.14 1.21 1.30 1.30 1.38 1.39 1.46 1.68 1.67 1.63 1.61 1.63 1.54 1.36 1.26 1.12 0.92 0.79 0.75
1.26 1.47 1.32 1.00 0.79 0.70 0.65 0.62 0.72 0.83 0.88 0.87 0.85 0.86 0.94 1.02 1.13 1.23 1.28 1.41 1.44 1.34 1.29 1.22 1.15 1.18 1.20 1.28 1.37 1.39 1.38 1.44 1.59 1.61 1.62 1.70 1.68 1.48 1.32 1.18 1.07 1.09 0.99
0.82 1.03 0.98 0.80 0.70 0.62 0.62 0.64 0.66 0.72 0.78 0.84 0.99 1.17 1.27 1.32 1.35 1.39 1.37 1.33 1.29 1.19 1.11 1.05 1.08 1.18 1.22 1.23 1.20 1.22 1.26 1.35 1.44 1.48 1.54 1.66 1.72 1.65 1.45 1.32 1.30 1.25 1.15
0.72 0.90 0.85 0.75 0.70 0.60 0.54 0.56 0.64 0.74 0.81 0.95 1.11 1.21 1.21 1.23 1.30 1.37 1.37 1.30 1.21 1.10 0.98 0.82 0.79 0.95 1.09 1.13 1.06 1.08 1.13 1.20 1.23 1.31 1.40 1.54 1.64 1.74 1.56 1.37 1.31 1.36 1.31
0.66 0.87 0.87 0.77 0.69 0.57 0.54 0.61 0.75 0.82 0.90 1.05 1.12 1.14 1.09 0.88 0.86 0.93 0.97 0.99 1.01 0.96 0.85 0.78 0.76 0.76 0.78 0.80 0.83 0.87 0.93 1.01 1.14 1.30 1.39 1.45 1.47 1.58 1.67 1.62 1.55 1.51 1.48
0.65 0.82 0.90 0.87 0.82 0.73 0.65 0.73 0.81 0.88 0.96 1.04 1.06 1.05 1.02 0.97 0.85 0.73 0.72 0.76 0.79 0.79 0.78 0.81 0.67 0.58 0.63 0.64 0.68 0.68 0.66 0.69 0.80 1.02 1.22 1.28 1.40 1.45 1.68 1.71 1.73 1.82 1.81
0.69 0.85 0.91 0.91 0.93 0.98 0.91 0.91 0.98 1.05 1.08 1.11 1.08 1.05 1.08 1.05 0.92 0.77 0.67 0.61 0.69 0.74 0.75 0.78 0.77 0.73 0.73 0.77 0.77 0.72 0.63 0.59 0.59 0.65 0.84 1.07 1.29 1.52 1.62 1.69 1.78 1.84 1.83
0.75 0.88 0.98 1.06 1.14 1.17 1.15 1.20 1.30 1.36 1.30 1.28 1.28 1.26 1.28 1.27 1.08 0.80 0.68 0.67 0.78 0.79 0.79 0.79 0.80 0.79 0.79 0.69 0.68 0.67 0.67 0.67 0.56 0.56 0.63 0.83 1.02 1.12 1.35 1.56 1.69 1.63 1.55
1.04 1.09 1.25 1.43 1.57 1.63 1.62 1.59 1.59 1.65 1.55 1.48 1.38 1.35 1.33 1.36 1.28 0.93 0.76 0.79 0.95 0.98 0.99 0.92 0.78 0.70 0.66 0.56 0.58 0.70 0.68 0.67 0.72 0.66 0.57 0.62 0.74 0.87 0.96 1.08 1.31 1.45 1.34
1.28 1.35 1.54 1.82 1.95 1.89 1.85 1.77 1.72 1.73 1.73 1.68 1.56 1.52 1.52 1.50 1.42 1.07 0.92 0.97 1.11 1.20 1.16 1.10 1.01 0.84 0.64 0.58 0.57 0.64 0.67 0.71 0.81 0.85 0.83 0.80 0.89 1.00 0.96 0.93 1.04 1.21 1.24
1.44 1.61 1.81 2.02 1.98 1.86 1.99 1.91 1.87 1.92 1.90 1.84 1.80 1.71 1.68 1.66 1.50 1.18 0.93 0.98 1.14 1.30 1.34 1.28 1.18 0.96 0.73 0.64 0.60 0.58 0.56 0.55 0.63 0.75 0.79 0.78 0.82 0.92 0.99 0.97 1.01 1.05 1.10
1.59 1.72 1.83 1.91 2.04 2.18 2.23 2.16 2.08 2.03 2.01 1.90 1.84 1.76 1.70 1.70 1.64 1.20 0.96 1.00 1.10 1.21 1.39 1.40 1.17 0.95 0.79 0.64 0.59 0.60 0.53 0.49 0.59 0.65 0.65 0.66 0.66 0.77 0.97 1.10 1.14 1.15 1.12
1.46 1.47 1.59 1.76 1.87 1.97 2.18 2.23 2.20 2.10 2.07 2.02 1.90 1.78 1.72 1.75 1.72 1.39 1.09 1.05 1.09 1.11 1.21 1.26 1.13 0.96 0.84 0.73 0.67 0.64 0.60 0.61 0.68 0.70 0.71 0.74 0.77 0.85 0.96 1.06 1.16 1.20 1.16
1.46 1.40 1.40 1.47 1.61 1.71 1.83 1.93 1.94 1.96 1.77 1.69 1.59 1.51 1.50 1.56 1.52 1.27 1.11 1.12 1.24 1.29 1.25 1.29 1.30 1.17 1.04 0.94 0.90 0.91 0.91 0.86 0.79 0.81 0.85 0.87 0.87 0.88 0.95 1.03 1.10 1.13 1.07
1.43 1.36 1.35 1.38 1.48 1.57 1.63 1.58 1.41 1.35 1.17 1.05 1.03 1.01 1.02 1.06 1.14 1.00 0.89 0.99 1.16 1.22 1.17 1.19 1.30 1.29 1.21 1.12 1.06 1.07 1.06 1.01 0.95 0.96 0.95 0.94 0.92 0.90 0.93 0.98 1.01 1.02 0.99
1.43 1.31 1.23 1.20 1.25 1.30 1.41 1.56 1.62 1.40 1.17 0.98 0.87 0.77 0.75 0.81 0.90 0.90 0.86 0.91 1.01 1.05 1.03 1.08 1.17 1.23 1.19 1.15 1.10 1.07 1.03 1.05 1.07 1.03 0.99 1.00 0.98 0.93 0.91 0.94 0.96 1.01 1.00
1.32 1.22 1.12 1.12 1.17 1.21 1.28 1.40 1.55 1.56 1.32 1.00 0.86 0.75 0.64 0.64 0.67 0.71 0.72 0.77 0.86 0.90 0.91 0.97 1.03 1.08 1.09 1.10 1.10 1.09 1.06 1.08 1.06 1.05 1.01 0.99 0.99 0.94 0.94 0.95 0.92 0.94 1.00
1.17 1.09 1.02 1.05 1.08 1.06 1.12 1.20 1.30 1.36 1.28 1.12 0.94 0.76 0.62 0.53 0.55 0.59 0.59 0.66 0.81 0.86 0.85 0.89 0.91 0.93 0.97 1.01 1.01 1.06 1.05 1.02 1.01 1.04 1.01 0.97 0.98 0.99 0.98 0.98 0.98 0.99 0.99
1.07 0.89 0.83 0.89 0.94 0.96 1.03 1.10 1.14 1.21 1.20 1.13 1.01 0.77 0.57 0.51 0.59 0.65 0.65 0.75 0.85 0.86 0.82 0.85 0.81 0.81 0.86 0.92 0.97 1.03 1.02 1.04 1.06 1.03 1.00 0.99 0.97 0.98 0.95 0.96 0.99 1.01 1.01
0.99 0.84 0.64 0.62 0.72 0.80 0.90 0.99 1.03 1.04 1.07 1.05 0.90 0.64 0.45 0.41 0.54 0.69 0.79 0.83 0.84 0.83 0.78 0.74 0.70 0.72 0.77 0.83 0.87 0.90 0.95 1.02 1.01 1.00 1.03 1.00 0.95 0.96 0.94 0.96 0.95 0.96 0.99
0.92 0.84 0.69 0.60 0.64 0.69 0.77 0.88 0.90 0.87 0.87 0.86 0.76 0.57 0.42 0.39 0.52 0.65 0.72 0.72 0.71 0.73 0.70 0.66 0.64 0.69 0.71 0.74 0.79 0.85 0.90 0.93 0.94 0.97 0.99 0.98 0.97 0.96 0.96 1.00 1.00 0.98 0.99
0.88 0.80 0.69 0.62 0.64 0.63 0.66 0.77 0.79 0.76 0.73 0.69 0.63 0.56 0.47 0.49 0.56 0.65 0.67 0.66 0.66 0.64 0.63 0.62 0.60 0.59 0.64 0.67 0.69 0.75 0.82 0.82 0.84 0.87 0.93 0.97 0.97 0.98 1.01 1.03 0.99 0.94 0.95
0.81 0.76 0.65 0.60 0.62 0.67 0.67 0.70 0.66 0.63 0.61 0.57 0.54 0.52 0.52 0.56 0.59 0.60 0.61 0.60 0.60 0.56 0.54 0.55 0.56 0.56 0.59 0.64 0.64 0.64 0.67 0.69 0.69 0.73 0.78 0.83 0.86 0.93 0.99 1.02 0.98 0.95 1.00
0.78 0.79 0.69 0.59 0.58 0.61 0.62 0.64 0.62 0.61 0.56 0.50 0.50 0.50 0.52 0.54 0.55 0.58 0.58 0.55 0.51 0.50 0.47 0.48 0.54 0.54 0.50 0.51 0.52 0.52 0.56 0.54 0.53 0.60 0.69 0.77 0.79 0.85 0.97 1.01 1.00 0.99 1.05
0.71 0.73 0.67 0.58 0.53 0.53 0.55 0.62 0.64 0.59 0.54 0.47 0.47 0.50 0.47 0.44 0.44 0.46 0.45 0.43 0.43 0.43 0.43 0.45 0.47 0.48 0.47 0.45 0.44 0.45 0.43 0.39 0.41 0.50 0.54 0.63 0.72 0.79 0.87 0.92 0.91 0.99 1.06

GEFSGL_prec_meanprecacc_150.txt.gz
Total_Precipitation_Accumulation
1.18 1.33 1.27 1.09 0.97 0.93 0.83 0.77 0.84 0.92 0.97 1.00 0.94 0.87 0.81 0.82 0.93 1.09 1.11 1.18 1.26 1.31 1.35 1.34 1.31 1.33 1.37 1.30 1.38 1.51 1.68 1.82 1.68 1.56 1.47 1.42 1.35 1.27 1.13 0.94 0.81 0.72 0.64
1.49 1.69 1.62 1.25 1.03 0.93 0.76 0.67 0.75 0.89 0.96 0.98 0.91 0.84 0.79 0.84 0.97 1.08 1.20 1.40 1.52 1.47 1.38 1.30 1.21 1.26 1.34 1.34 1.42 1.43 1.49 1.71 1.70 1.65 1.63 1.65 1.57 1.39 1.29 1.16 0.93 0.81 0.76
1.30 1.54 1.42 1.11 0.88 0.78 0.73 0.70 0.81 0.95 0.99 0.96 0.94 0.95 1.02 1.09 1.20 1.30 1.35 1.48 1.50 1.41 1.37 1.30 1.22 1.24 1.25 1.33 1.41 1.43 1.42 1.48 1.63 1.64 1.65 1.74 1.72 1.52 1.35 1.21 1.09 1.11 1.01
0.85 1.09 1.06 0.89 0.80 0.71 0.71 0.74 0.77 0.83 0.89 0.93 1.08 1.26 1.36 1.41 1.42 1.46 1.45 1.41 1.37 1.27 1.19 1.12 1.14 1.24 1.28 1.29 1.25 1.28 1.32 1.40 1.49 1.53 1.58 1.70 1.76 1.69 1.48 1.34 1.32 1.27 1.17
0.75 0.94 0.90 0.82 0.79 0.72 0.67 0.70 0.78 0.87 0.92 1.06 1.21 1.32 1.32 1.33 1.38 1.46 1.45 1.38 1.30 1.19 1.06 0.88 0.84 1.01 1.14 1.18 1.10 1.14 1.19 1.26 1.29 1.37 1.46 1.59 1.69 1.79 1.60 1.40 1.33 1.38 1.33
0.68 0.90 0.90 0.83 0.76 0.69 0.69 0.78 0.92 0.99 1.07 1.20 1.26 1.26 1.21 0.97 0.94 1.02 1.07 1.09 1.09 1.04 0.92 0.85 0.82 0.81 0.82 0.84 0.86 0.90 0.97 1.06 1.20 1.37 1.47 1.52 1.54 1.64 1.73 1.67 1.59 1.54 1.51
0.68 0.85 0.93 0.90 0.88 0.85 0.80 0.90 1.02 1.09 1.17 1.24 1.23 1.18 1.13 1.07 0.93 0.82 0.82 0.87 0.90 0.89 0.88 0.89 0.73 0.63 0.70 0.70 0.74 0.73 0.70 0.73 0.85 1.07 1.28 1.34 1.47 1.52 1.75 1.78 1.79 1.88 1.85
0.71 0.87 0.93 0.94 0.97 1.05 1.03 1.06 1.18 1.28 1.29 1.31 1.27 1.21 1.22 1.18 1.03 0.87 0.77 0.72 0.82 0.87 0.87 0.89 0.87 0.82 0.81 0.85 0.85 0.78 0.69 0.65 0.66 0.71 0.90 1.15 1.36 1.59 1.67 1.73 1.81 1.88 1.87
0.78 0.92 1.01 1.09 1.20 1.23 1.23 1.32 1.46 1.54 1.47 1.47 1.48 1.43 1.43 1.42 1.22 0.93 0.80 0.78 0.92 0.95 0.95 0.93 0.91 0.90 0.90 0.78 0.77 0.77 0.76 0.75 0.63 0.62 0.68 0.87 1.05 1.15 1.37 1.58 1.71 1.66 1.58
1.09 1.14 1.30 1.47 1.64 1.72 1.73 1.73 1.75 1.81 1.72 1.67 1.58 1.52 1.48 1.51 1.43 1.06 0.90 0.91 1.08 1.11 1.15 1.11 0.96 0.86 0.80 0.67 0.67 0.78 0.75 0.72 0.76 0.69 0.61 0.64 0.76 0.90 0.99 1.10 1.34 1.49 1.39
1.33 1.40 1.60 1.89 2.05 1.99 1.95 1.88 1.84 1.86 1.86 1.83 1.72 1.66 1.65 1.62 1.54 1.18 1.04 1.07 1.22 1.32 1.29 1.22 1.14 0.97 0.75 0.66 0.63 0.69 0.72 0.74 0.84 0.89 0.87 0.83 0.92 1.03 1.00 0.96 1.08 1.25 1.29
1.50 1.67 1.87 2.08 2.06 1.96 2.09 2.01 1.97 2.01 2.00 1.94 1.91 1.85 1.80 1.76 1.61 1.29 1.03 1.07 1.22 1.40 1.45 1.39 1.28 1.05 0.80 0.70 0.64 0.62 0.59 0.58 0.65 0.78 0.82 0.80 0.85 0.95 1.02 1.00 1.03 1.08 1.13
1.66 1.80 1.92 2.01 2.16 2.30 2.34 2.25 2.16 2.10 2.08 1.95 1.89 1.83 1.78 1.80 1.75 1.31 1.04 1.08 1.16 1.27 1.46 1.48 1.24 1.02 0.87 0.72 0.68 0.67 0.59 0.54 0.64 0.70 0.70 0.70 0.70 0.81 1.01 1.14 1.18 1.19 1.16
1.52 1.55 1.69 1.88 1.99 2.09 2.31 2.36 2.29 2.17 2.12 2.08 1.96 1.85 1.80 1.82 1.80 1.45 1.16 1.12 1.16 1.18 1.28 1.35 1.23 1.07 0.94 0.83 0.77 0.74 0.69 0.70 0.76 0.76 0.77 0.80 0.82 0.89 0.99 1.09 1.19 1.23 1.20
1.52 1.48 1.49 1.55 1.69 1.79 1.92 2.04 2.05 2.05 1.85 1.76 1.66 1.60 1.60 1.65 1.61 1.36 1.19 1.19 1.32 1.39 1.36 1.39 1.39 1.26 1.13 1.02 0.98 1.00 1.00 0.95 0.88 0.88 0.91 0.93 0.92 0.92 0.98 1.05 1.13 1.16 1.10
1.48 1.42 1.42 1.45 1.55 1.64 1.69 1.65 1.48 1.41 1.23 1.11 1.10 1.07 1.09 1.13 1.22 1.09 0.98 1.07 1.24 1.30 1.24 1.27 1.37 1.36 1.28 1.19 1.13 1.12 1.11 1.05 0.99 1.00 0.98 0.97 0.95 0.92 0.95 1.00 1.04 1.05 1.02
1.50 1.37 1.29 1.26 1.32 1.37 1.47 1.60 1.66 1.44 1.21 1.03 0.92 0.80 0.79 0.87 0.96 0.96 0.92 0.96 1.06 1.10 1.07 1.13 1.22 1.27 1.22 1.18 1.12 1.10 1.06 1.08 1.09 1.04 1.01 1.01 1.00 0.95 0.93 0.96 0.97 1.02 1.01
1.40 1.29 1.20 1.20 1.25 1.30 1.38 1.49 1.61 1.61 1.36 1.03 0.89 0.77 0.67 0.67 0.70 0.73 0.75 0.80 0.89 0.93 0.94 1.01 1.06 1.10 1.11 1.12 1.11 1.11 1.07 1.09 1.07 1.06 1.01 1.00 1.00 0.95 0.95 0.96 0.93 0.95 1.00
1.22 1.14 1.08 1.13 1.16 1.15 1.20 1.27 1.35 1.41 1.32 1.15 0.97 0.78 0.64 0.54 0.56 0.60 0.60 0.67 0.82 0.87 0.87 0.91 0.92 0.94 0.97 1.01 1.02 1.06 1.06 1.02 1.01 1.05 1.01 0.97 0.99 1.00 0.99 0.99 0.99 1.00 1.00
1.12 0.95 0.88 0.94 0.98 0.99 1.06 1.12 1.16 1.22 1.21 1.15 1.03 0.79 0.59 0.53 0.61 0.67 0.67 0.76 0.86 0.86 0.82 0.86 0.82 0.81 0.86 0.92 0.97 1.03 1.02 1.04 1.06 1.03 1.01 0.99 0.98 0.98 0.96 0.96 1.00 1.02 1.02
1.04 0.88 0.66 0.63 0.73 0.80 0.91 1.00 1.04 1.05 1.08 1.06 0.91 0.65 0.46 0.43 0.55 0.70 0.80 0.84 0.84 0.83 0.78 0.74 0.70 0.72 0.77 0.83 0.88 0.91 0.96 1.02 1.01 1.00 1.04 1.00 0.96 0.96 0.95 0.96 0.96 0.97 0.99
0.94 0.86 0.70 0.61 0.64 0.69 0.77 0.88 0.90 0.87 0.87 0.86 0.77 0.57 0.42 0.39 0.52 0.65 0.72 0.72 0.71 0.73 0.70 0.66 0.64 0.69 0.72 0.74 0.80 0.86 0.90 0.93 0.95 0.97 0.99 0.99 0.98 0.96 0.96 1.00 1.00 0.99 0.99
0.89 0.80 0.69 0.63 0.64 0.63 0.67 0.77 0.79 0.76 0.73 0.69 0.63 0.56 0.47 0.49 0.57 0.65 0.67 0.66 0.66 0.64 0.63 0.62 0.60 0.59 0.64 0.68 0.70 0.76 0.82 0.83 0.84 0.87 0.93 0.97 0.97 0.98 1.02 1.03 0.99 0.95 0.95
0.81 0.77 0.65 0.60 0.62 0.67 0.68 0.70 0.66 0.63 0.61 0.58 0.54 0.53 0.52 0.56 0.59 0.60 0.61 0.61 0.60 0.56 0.54 0.55 0.56 0.56 0.59 0.64 0.64 0.64 0.67 0.69 0.69 0.73 0.78 0.84 0.87 0.93 1.00 1.03 0.99 0.96 1.01
0.78 0.79 0.69 0.60 0.58 0.61 0.62 0.64 0.62 0.61 0.56 0.51 0.50 0.50 0.52 0.54 0.55 0.58 0.58 0.55 0.51 0.50 0.47 0.48 0.54 0.55 0.51 0.51 0.52 0.52 0.56 0.54 0.53 0.60 0.69 0.78 0.80 0.87 0.98 1.02 1.02 1.01 1.08
0.71 0.73 0.67 0.58 0.53 0.54 0.55 0.62 0.64 0.59 0.54 0.48 0.47 0.50 0.47 0.44 0.44 0.46 0.45 0.43 0.43 0.43 0.43 0.45 0.48 0.49 0.47 0.45 0.44 0.45 0.43 0.40 0.41 0.50 0.55 0.63 0.73 0.80 0.88 0.94 0.93 1.00 1.08

GEFSGL_prec_meanprecacc_156.txt.gz
Total_Precipitation_Accumulation
1.29 1.44 1.37 1.20 1.11 1.09 0.98 0.93 1.02 1.09 1.13 1.15 1.09 1.02 0.95 0.94 1.07 1.23 1.24 1.31 1.39 1.45 1.49 1.48 1.46 1.47 1.50 1.39 1.45 1.58 1.75 1.90 1.76 1.63 1.53 1.48 1.41 1.31 1.18 0.97 0.83 0.74 0.66
1.60 1.81 1.74 1.38 1.16 1.06 0.89 0.81 0.90 1.04 1.11 1.10 1.04 0.98 0.92 0.97 1.12 1.23 1.34 1.54 1.65 1.60 1.52 1.43 1.33 1.38 1.45 1.43 1.51 1.52 1.59 1.82 1.80 1.75 1.72 1.73 1.63 1.43 1.34 1.20 0.95 0.83 0.79
1.39 1.65 1.56 1.24 1.02 0.93 0.88 0.87 0.99 1.10 1.12 1.08 1.07 1.07 1.14 1.23 1.36 1.45 1.51 1.64 1.65 1.55 1.51 1.41 1.32 1.35 1.36 1.43 1.52 1.52 1.51 1.56 1.70 1.72 1.72 1.81 1.78 1.57 1.41 1.27 1.14 1.17 1.03
0.94 1.20 1.20 1.03 0.94 0.87 0.88 0.92 0.94 0.99 1.03 1.08 1.23 1.40 1.50 1.55 1.57 1.62 1.63 1.57 1.52 1.40 1.33 1.24 1.24 1.33 1.38 1.40 1.36 1.39 1.42 1.50 1.58 1.62 1.66 1.77 1.82 1.74 1.55 1.41 1.38 1.33 1.21
0.83 1.03 1.01 0.93 0.90 0.84 0.81 0.86 0.93 1.01 1.06 1.20 1.37 1.49 1.47 1.47 1.48 1.57 1.59 1.53 1.44 1.31 1.18 0.99 0.95 1.14 1.27 1.30 1.20 1.26 1.31 1.37 1.40 1.47 1.55 1.67 1.76 1.87 1.68 1.46 1.39 1.44 1.37
0.75 0.96 0.98 0.91 0.84 0.78 0.81 0.91 1.06 1.13 1.23 1.35 1.40 1.40 1.35 1.08 1.05 1.13 1.21 1.25 1.24 1.18 1.07 0.99 0.94 0.95 0.94 0.93 0.94 0.97 1.04 1.14 1.28 1.46 1.55 1.61 1.63 1.73 1.81 1.72 1.65 1.60 1.56
0.76 0.94 1.01 0.96 0.94 0.92 0.89 1.02 1.18 1.25 1.32 1.38 1.37 1.34 1.29 1.22 1.07 0.94 0.92 0.99 1.05 1.06 1.05 1.07 0.86 0.75 0.83 0.83 0.85 0.80 0.76 0.79 0.91 1.15 1.36 1.43 1.56 1.60 1.83 1.85 1.87 1.95 1.91
0.83 0.99 1.02 0.99 1.03 1.12 1.12 1.17 1.32 1.46 1.47 1.46 1.44 1.39 1.40 1.33 1.18 1.00 0.88 0.85 0.98 1.05 1.04 1.05 1.03 0.97 0.94 0.99 0.99 0.91 0.79 0.74 0.74 0.78 0.99 1.25 1.46 1.69 1.76 1.80 1.88 1.94 1.92
0.85 0.98 1.07 1.15 1.25 1.29 1.31 1.42 1.58 1.69 1.64 1.64 1.67 1.63 1.60 1.58 1.36 1.06 0.92 0.93 1.08 1.09 1.09 1.07 1.06 1.03 1.01 0.90 0.90 0.91 0.88 0.86 0.71 0.71 0.77 0.95 1.13 1.22 1.43 1.63 1.77 1.71 1.62
1.16 1.21 1.37 1.54 1.71 1.80 1.82 1.86 1.89 1.96 1.87 1.82 1.75 1.70 1.63 1.65 1.56 1.19 1.02 1.04 1.21 1.24 1.27 1.23 1.08 0.95 0.88 0.77 0.78 0.91 0.89 0.86 0.88 0.80 0.69 0.71 0.82 0.95 1.02 1.14 1.38 1.54 1.44
1.40 1.48 1.68 1.98 2.15 2.10 2.07 2.01 1.96 1.97 1.96 1.93 1.85 1.82 1.80 1.77 1.69 1.30 1.13 1.19 1.35 1.43 1.40 1.32 1.23 1.05 0.82 0.75 0.71 0.77 0.80 0.83 0.92 0.95 0.94 0.90 0.98 1.09 1.04 1.01 1.13 1.30 1.33
1.57 1.77 1.97 2.19 2.16 2.07 2.22 2.14 2.10 2.13 2.10 2.03 2.02 1.97 1.97 1.92 1.76 1.45 1.17 1.20 1.35 1.50 1.55 1.47 1.36 1.13 0.88 0.77 0.71 0.67 0.65 0.64 0.72 0.86 0.91 0.90 0.94 1.05 1.11 1.08 1.10 1.13 1.17
1.72 1.89 2.01 2.10 2.28 2.42 2.46 2.38 2.28 2.22 2.17 2.04 1.98 1.90 1.85 1.89 1.86 1.43 1.16 1.19 1.26 1.34 1.52 1.53 1.29 1.06 0.91 0.76 0.74 0.74 0.67 0.63 0.74 0.82 0.82 0.82 0.82 0.93 1.12 1.24 1.26 1.25 1.20
1.57 1.60 1.75 1.94 2.07 2.17 2.40 2.47 2.40 2.26 2.20 2.15 2.03 1.91 1.85 1.89 1.87 1.53 1.23 1.18 1.22 1.22 1.32 1.38 1.25 1.09 0.97 0.86 0.81 0.77 0.74 0.76 0.84 0.87 0.88 0.91 0.91 0.98 1.06 1.15 1.24 1.28 1.24
1.56 1.52 1.53 1.59 1.73 1.82 1.95 2.08 2.09 2.11 1.93 1.83 1.72 1.66 1.66 1.71 1.68 1.42 1.24 1.23 1.35 1.41 1.38 1.42 1.43 1.30 1.17 1.07 1.03 1.06 1.07 1.03 0.96 0.95 0.98 1.00 0.98 0.98 1.03 1.09 1.17 1.20 1.13
1.52 1.46 1.46 1.49 1.58 1.66 1.71 1.68 1.53 1.47 1.31 1.18 1.14 1.11 1.12 1.16 1.25 1.11 1.00 1.09 1.26 1.32 1.26 1.29 1.40 1.39 1.31 1.22 1.16 1.16 1.15 1.09 1.03 1.03 1.02 1.00 0.98 0.95 0.97 1.02 1.06 1.07 1.04
1.53 1.39 1.31 1.27 1.34 1.39 1.49 1.63 1.69 1.48 1.26 1.07 0.96 0.84 0.81 0.89 0.98 0.97 0.93 0.97 1.07 1.11 1.08 1.14 1.24 1.28 1.25 1.21 1.15 1.12 1.07 1.09 1.10 1.06 1.02 1.03 1.01 0.96 0.93 0.96 0.98 1.04 1.03
1.43 1.32 1.23 1.23 1.28 1.33 1.42 1.54 1.67 1.67 1.42 1.09 0.93 0.80 0.69 0.68 0.71 0.74 0.75 0.80 0.89 0.93 0.95 1.02 1.08 1.12 1.13 1.13 1.12 1.11 1.08 1.09 1.08 1.06 1.02 1.01 1.01 0.96 0.96 0.97 0.94 0.96 1.01
1.25 1.17 1.11 1.16 1.20 1.19 1.25 1.33 1.40 1.45 1.36 1.19 0.99 0.80 0.65 0.55 0.56 0.60 0.60 0.67 0.83 0.88 0.87 0.91 0.93 0.94 0.98 1.01 1.02 1.06 1.06 1.02 1.01 1.05 1.02 0.98 1.00 1.01 1.00 0.99 0.99 1.00 1.01
1.15 0.98 0.91 0.97 1.02 1.04 1.10 1.15 1.19 1.25 1.23 1.16 1.04 0.79 0.59 0.53 0.61 0.67 0.67 0.77 0.86 0.87 0.83 0.86 0.82 0.81 0.86 0.93 0.98 1.03 1.03 1.04 1.07 1.04 1.01 1.00 0.98 0.99 0.96 0.97 1.00 1.02 1.02
1.09 0.92 0.70 0.66 0.75 0.82 0.92 1.01 1.04 1.05 1.09 1.07 0.91 0.65 0.46 0.43 0.55 0.70 0.80 0.84 0.84 0.83 0.78 0.74 0.70 0.72 0.78 0.83 0.88 0.91 0.96 1.03 1.02 1.01 1.04 1.01 0.97 0.97 0.96 0.97 0.96 0.97 1.00
0.98 0.89 0.73 0.64 0.66 0.70 0.78 0.89 0.91 0.88 0.87 0.86 0.77 0.57 0.42 0.39 0.52 0.65 0.72 0.72 0.71 0.73 0.70 0.66 0.64 0.69 0.72 0.75 0.80 0.86 0.91 0.94 0.95 0.98 1.00 0.99 0.98 0.97 0.97 1.01 1.01 0.99 1.00
0.91 0.83 0.72 0.65 0.67 0.64 0.68 0.78 0.79 0.76 0.73 0.69 0.63 0.56 0.47 0.49 0.57 0.65 0.67 0.66 0.66 0.64 0.63 0.62 0.60 0.59 0.65 0.68 0.70 0.76 0.82 0.83 0.84 0.87 0.93 0.97 0.98 0.98 1.02 1.04 1.00 0.95 0.96
0.81 0.77 0.65 0.61 0.63 0.68 0.68 0.70 0.67 0.63 0.61 0.58 0.54 0.53 0.52 0.56 0.59 0.60 0.61 0.61 0.60 0.56 0.54 0.55 0.56 0.56 0.60 0.64 0.64 0.64 0.67 0.69 0.70 0.73 0.78 0.84 0.87 0.94 1.01 1.04 1.00 0.96 1.02
0.78 0.79 0.69 0.60 0.59 0.61 0.63 0.64 0.62 0.61 0.56 0.51 0.50 0.50 0.52 0.54 0.55 0.58 0.58 0.55 0.51 0.50 0.47 0.48 0.54 0.55 0.51 0.51 0.52 0.52 0.56 0.54 0.54 0.60 0.69 0.78 0.81 0.88 0.99 1.03 1.03 1.03 1.09
0.71 0.74 0.68 0.59 0.55 0.56 0.57 0.63 0.65 0.59 0.54 0.48 0.47 0.50 0.47 0.44 0.44 0.46 0.45 0.43 0.43 0.43 0.43 0.45 0.48 0.49 0.47 0.45 0.44 0.45 0.43 0.40 0.41 0.50 0.55 0.64 0.74 0.81 0.89 0.95 0.94 1.01 1.09